BHE179 ZWWW-ZBAD

Flight info

Callsign BHE179
Flight time N/A
Altitude 37100
Route WUR W190 ADPET W188 LIKMI W270 DKO W64 ELAPU ELAPU5L
Aircraft A21N/M-SDE2E3FGHIRWXY/LB1

Departure

Time N/A
Airport Ürümqi Tianshan International Airport (ZWWW)

Arrival

Time 2026-05-06 09:35
Airport Beijing Daxing International Airport (ZBAD)
Time Latitude Longitude Altitude Speed Heading
2026-05-06 09:08 40.22391 115.22016 37100 ft 456 kts 94°
2026-05-06 09:08 40.21965 115.30254 36812 ft 456 kts 94°
2026-05-06 09:08 40.21752 115.34354 36566 ft 454 kts 94°
2026-05-06 09:09 40.21267 115.38365 36320 ft 450 kts 105°
2026-05-06 09:09 40.20216 115.42184 36064 ft 447 kts 116°
2026-05-06 09:09 40.18658 115.45660 35755 ft 444 kts 126°
2026-05-06 09:09 40.16617 115.48748 35288 ft 443 kts 137°
2026-05-06 09:10 40.14245 115.51233 34728 ft 443 kts 147°
2026-05-06 09:10 40.11548 115.53140 34080 ft 443 kts 158°
2026-05-06 09:10 40.08641 115.54401 33387 ft 443 kts 166°
2026-05-06 09:10 40.05647 115.55392 32580 ft 447 kts 167°
2026-05-06 09:11 40.02616 115.56353 31764 ft 450 kts 167°
2026-05-06 09:11 39.99560 115.57325 30951 ft 453 kts 167°
2026-05-06 09:11 39.96519 115.58302 30128 ft 456 kts 167°
2026-05-06 09:11 39.93433 115.59302 29279 ft 458 kts 166°
2026-05-06 09:12 39.90368 115.60301 28425 ft 460 kts 166°
2026-05-06 09:12 39.87261 115.61316 27617 ft 459 kts 166°
2026-05-06 09:12 39.84166 115.62329 27049 ft 453 kts 166°
2026-05-06 09:12 39.81130 115.63322 26482 ft 447 kts 166°
2026-05-06 09:13 39.78174 115.64288 25919 ft 442 kts 166°
2026-05-06 09:13 39.75213 115.65256 25355 ft 437 kts 167°
2026-05-06 09:13 39.72254 115.66221 24802 ft 432 kts 167°
2026-05-06 09:13 39.69360 115.67164 24264 ft 427 kts 167°
2026-05-06 09:14 39.66510 115.68092 23737 ft 422 kts 167°
2026-05-06 09:14 39.63685 115.69011 23213 ft 418 kts 167°
2026-05-06 09:14 39.60895 115.69917 22694 ft 414 kts 167°
2026-05-06 09:14 39.58098 115.70825 22173 ft 410 kts 167°
2026-05-06 09:15 39.55370 115.71711 21656 ft 406 kts 167°
2026-05-06 09:15 39.52655 115.72591 21140 ft 402 kts 167°
2026-05-06 09:15 39.49975 115.73657 20601 ft 399 kts 156°
2026-05-06 09:15 39.47734 115.75712 20096 ft 396 kts 136°
2026-05-06 09:16 39.46170 115.78584 19573 ft 395 kts 117°
2026-05-06 09:16 39.45411 115.81961 18950 ft 395 kts 97°
2026-05-06 09:16 39.45335 115.85508 18371 ft 393 kts 91°
2026-05-06 09:16 39.45343 115.88983 17860 ft 389 kts 90°
2026-05-06 09:17 39.45343 115.92455 17350 ft 385 kts 91°
2026-05-06 09:17 39.45327 115.95911 16842 ft 382 kts 91°
2026-05-06 09:17 39.45301 115.99281 16345 ft 378 kts 91°
2026-05-06 09:17 39.45269 116.02650 15850 ft 375 kts 91°
2026-05-06 09:18 39.44994 116.05965 15319 ft 370 kts 107°
2026-05-06 09:18 39.43832 116.08878 14818 ft 365 kts 128°
2026-05-06 09:18 39.41947 116.11043 14289 ft 361 kts 149°
2026-05-06 09:18 39.39629 116.12199 13763 ft 357 kts 169°
2026-05-06 09:19 39.37197 116.12596 13296 ft 354 kts 174°
2026-05-06 09:19 39.34761 116.12934 12806 ft 351 kts 174°
2026-05-06 09:19 39.32338 116.13277 12306 ft 349 kts 174°
2026-05-06 09:19 39.29940 116.13628 11808 ft 346 kts 173°
2026-05-06 09:20 39.27611 116.13976 11312 ft 328 kts 173°
2026-05-06 09:20 39.25407 116.14310 11047 ft 302 kts 173°
2026-05-06 09:20 39.23399 116.14616 10868 ft 278 kts 173°
2026-05-06 09:20 39.21549 116.14898 10711 ft 260 kts 173°
2026-05-06 09:21 39.19810 116.15162 10563 ft 250 kts 173°
2026-05-06 09:21 39.18111 116.15421 10414 ft 240 kts 173°
2026-05-06 09:21 39.16489 116.15667 10286 ft 230 kts 173°
2026-05-06 09:21 39.14935 116.15904 10197 ft 218 kts 173°
2026-05-06 09:22 39.13474 116.16125 10153 ft 207 kts 173°
2026-05-06 09:22 39.12053 116.16340 10025 ft 206 kts 173°
2026-05-06 09:22 39.10634 116.16608 9908 ft 206 kts 165°
2026-05-06 09:22 39.09396 116.17502 9786 ft 206 kts 139°
2026-05-06 09:23 39.08575 116.19006 9594 ft 208 kts 114°
2026-05-06 09:23 39.08331 116.20818 9228 ft 208 kts 89°
2026-05-06 09:23 39.08485 116.22649 8967 ft 206 kts 83°
2026-05-06 09:23 39.08684 116.24479 8725 ft 205 kts 82°
2026-05-06 09:24 39.08880 116.26274 8486 ft 205 kts 82°
2026-05-06 09:24 39.09071 116.28093 8245 ft 204 kts 83°
2026-05-06 09:24 39.09253 116.29900 8005 ft 203 kts 83°
2026-05-06 09:24 39.09430 116.31698 7767 ft 202 kts 83°
2026-05-06 09:25 39.09601 116.33477 7532 ft 201 kts 83°
2026-05-06 09:25 39.09772 116.35267 7295 ft 200 kts 83°
2026-05-06 09:25 39.09941 116.37034 7060 ft 200 kts 83°
2026-05-06 09:25 39.10108 116.38785 6828 ft 199 kts 83°
2026-05-06 09:26 39.10276 116.40556 6592 ft 198 kts 83°
2026-05-06 09:26 39.10507 116.42305 6337 ft 198 kts 72°
2026-05-06 09:26 39.11269 116.43750 6064 ft 198 kts 38°
2026-05-06 09:26 39.12521 116.44443 5967 ft 197 kts 12°
2026-05-06 09:27 39.13888 116.44604 5995 ft 198 kts 359°
2026-05-06 09:27 39.15262 116.44496 5855 ft 199 kts 354°
2026-05-06 09:27 39.16643 116.44299 5583 ft 197 kts 353°
2026-05-06 09:27 39.18002 116.44084 5343 ft 196 kts 352°
2026-05-06 09:28 39.19342 116.43868 5137 ft 196 kts 352°
2026-05-06 09:28 39.20708 116.43649 4936 ft 195 kts 352°
2026-05-06 09:28 39.22056 116.43433 4741 ft 194 kts 352°
2026-05-06 09:28 39.23395 116.43219 4548 ft 194 kts 353°
2026-05-06 09:29 39.24734 116.43006 4506 ft 194 kts 353°
2026-05-06 09:29 39.26076 116.42793 4416 ft 194 kts 353°
2026-05-06 09:29 39.27410 116.42582 4180 ft 193 kts 353°
2026-05-06 09:29 39.28751 116.42370 3919 ft 193 kts 353°
2026-05-06 09:30 39.30091 116.42158 3660 ft 192 kts 353°
2026-05-06 09:30 39.31422 116.41947 3404 ft 191 kts 353°
2026-05-06 09:30 39.32736 116.41740 3149 ft 190 kts 352°
2026-05-06 09:30 39.34047 116.41532 2890 ft 186 kts 353°
2026-05-06 09:31 39.35276 116.41337 2652 ft 170 kts 352°
2026-05-06 09:31 39.36402 116.41159 2424 ft 157 kts 353°
2026-05-06 09:31 39.37445 116.40994 2208 ft 143 kts 353°
2026-05-06 09:31 39.38395 116.40843 2006 ft 134 kts 353°
2026-05-06 09:32 39.39315 116.40698 1844 ft 134 kts 353°
2026-05-06 09:32 39.40115 116.40571 1704 ft 134 kts 353°
2026-05-06 09:32 39.41035 116.40432 1544 ft 134 kts 353°
2026-05-06 09:32 39.41955 116.40285 1358 ft 133 kts 352°
2026-05-06 09:33 39.42878 116.40125 1159 ft 133 kts 353°
2026-05-06 09:33 39.43795 116.39982 1002 ft 133 kts 353°
2026-05-06 09:33 39.44718 116.39848 832 ft 132 kts 353°
2026-05-06 09:33 39.45628 116.39700 647 ft 132 kts 352°
2026-05-06 09:34 39.46537 116.39550 465 ft 132 kts 353°
2026-05-06 09:34 39.47444 116.39412 299 ft 131 kts 352°
2026-05-06 09:34 39.48351 116.39263 131 ft 131 kts 353°
2026-05-06 09:34 39.49207 116.39131 90 ft 109 kts 353°
2026-05-06 09:35 39.49788 116.39040 90 ft 59 kts 352°
2026-05-06 09:35 39.50118 116.38987 90 ft 40 kts 353°
2026-05-06 09:35 39.50345 116.39008 90 ft 27 kts 18°
2026-05-06 09:35 39.50496 116.39078 90 ft 20 kts 19°
2026-05-06 09:36 39.50632 116.39125 90 ft 20 kts
2026-05-06 09:36 39.50767 116.39127 90 ft 17 kts 19°
2026-05-06 09:36 39.50834 116.39204 90 ft 12 kts 83°
2026-05-06 09:36 39.50846 116.39325 90 ft 14 kts 83°
2026-05-06 09:37 39.50858 116.39460 90 ft 16 kts 83°
2026-05-06 09:37 39.50871 116.39613 90 ft 18 kts 84°
2026-05-06 09:37 39.50887 116.39774 90 ft 18 kts 82°
2026-05-06 09:37 39.50903 116.39938 90 ft 18 kts 83°
2026-05-06 09:38 39.50916 116.40095 90 ft 17 kts 83°
2026-05-06 09:38 39.50929 116.40237 90 ft 15 kts 83°
2026-05-06 09:38 39.50967 116.40321 90 ft 10 kts 27°
2026-05-06 09:38 39.51032 116.40350 90 ft 9 kts 17°
2026-05-06 09:39 39.51074 116.40378 90 ft 5 kts 41°
2026-05-06 09:39 39.51086 116.40392 90 ft 0 kts 42°